Weather in Setúbal

Portugal     38°31′31″N   8°54′10″W
temp.,
°C
wind,
m/s
gust,
m/s
humid.,
%
clouds,
%
prec.,
mm/h
press.,
hPa
HPBL,
m
6 may, thu
thu601:00+14nnw49835 0.0 1019336
04:00+13nnw39926 0.0 1018227
07:00+13nnw389319 0.0 1018259
10:00+18nnw45640 0.0 1019712
13:00+23nnw34445 0.0 10191133
16:00+24nnw44380 0.0 10181348
19:00+20nnw67520 0.0 1018745
22:00+15nnw49830 0.0 1021308
7 may, fri
fri701:00+13nnw34940 0.0 102091
04:00+13nnw23940 0.0 101982
07:00+13nnw23950 0.0 102073
10:00+19n34640 0.0 1020665
13:00+24nnw234368 0.0 10191057
16:00+25nw333793 0.0 10171279
19:00+21nnw5647100 0.0 1017528
22:00+15nnw3377100 0.0 101862
8 may, sat
sat801:00+14nnw2283100 0.0 101744
04:00+13nnw1287100 0.0 101634
07:00+12n118899 0.0 101534
10:00+18wsw1156100 0.0 1015449
13:00+22sw44402 0.0 10131045
16:00+21wsw56430 0.0 1011754
19:00+18wsw57650 0.0 1010553
22:00+14wsw3992100 0.0 1010396
9 may, sun
sun901:00+16s51088100 0.2 1009471
04:00+15ssw91590100 1.3 10071130
07:00+13wnw41188100 2.7 1008598
10:00+16wnw576841 0.5 10101051
13:00+19w78493 0.9 10101526
16:00+18w78595 0.4 10111309
19:00+16w67600 0.5 10111241
22:00+12w36801 0.0 1013164
10 may, mon
mon1001:00+11wnw23870 0.1 101365
04:00+11wsw35834 0.1 1012109
07:00+12wnw378328 0.9 1013254
10:00+16wnw67615 0.9 10141205
13:00+18wnw784978 1.4 10141902
16:00+17wnw895110 0.2 10141806
19:00+16nw79545 0.3 10161636
22:00+11nw36695 0.0 1019215